Vorticity
7 7 7 3 2 8 9 10 8 7 9 9 8 8 11 14 10 6 4 3 4 4 1 0 2 3 6 4 2 3 1 0 -0 2 2 2 0 1 6 7 6 4 4
5 5 17 12 8 6 6 6 8 7 7 7 7 6 8 11 13 14 14 8 7 2 -0 2 2 2 2 4 7 4 3 2 2 1 1 -0 1 1 2 2 3 6 8
7 4 5 6 8 10 11 12 13 13 11 11 11 10 9 7 6 5 7 9 15 15 5 7 -1 3 7 4 1 7 8 3 2 1 2 2 0 -1 1 1 2 2 2
9 9 13 13 10 8 7 9 10 10 9 9 9 9 9 10 10 9 9 7 5 7 10 19 7 7 0 5 6 5 3 7 9 3 2 3 11 5 5 2 1 1 1
13 10 7 12 16 15 13 10 8 9 9 10 9 9 11 8 9 10 10 10 10 9 6 4 6 17 4 4 -1 3 6 3 2 6 14 11 -34 65 54 10 34 5 -2
10 18 15 10 4 9 14 16 22 21 21 23 26 26 25 34 35 42 49 44 40 37 27 14 5 5 5 13 3 -2 0 1 4 4 11 16 24 14 -11 1 5 22 -18
12 9 4 14 11 10 13 12 16 15 16 15 14 16 6 2 -2 1 1 3 13 25 58 42 31 22 6 4 6 7 5 4 4 6 5 6 -7 -1 4 8 4 7 -3
7 9 12 7 8 12 12 10 5 1 5 16 22 16 11 12 11 9 12 4 -3 13 2 54 54 36 26 23 5 2 3 4 6 6 6 4 5 -8 24 8 15 4 26
8 7 5 7 9 6 6 7 8 8 8 4 9 15 18 17 19 18 22 25 25 31 14 27 70 44 34 47 32 16 5 2 4 3 5 6 6 3 -8 -5 -2 -4 -16
8 8 8 7 5 6 5 9 7 8 8 10 7 6 6 6 5 8 13 10 10 9 13 15 9 28 45 49 53 58 59 30 4 2 5 7 5 4 5 1 7 5 9
11 10 10 10 9 7 6 7 7 7 9 7 6 7 11 13 13 11 10 7 7 7 7 8 7 8 7 9 17 34 41 45 68 67 34 4 10 9 5 4 6 3 6
10 10 10 12 12 12 10 9 8 6 9 9 6 6 6 6 6 8 7 5 6 6 6 7 6 6 6 6 7 8 7 8 18 28 40 48 41 51 50 18 14 12 7
9 10 9 9 8 8 10 10 7 8 8 7 10 9 9 11 10 6 6 6 6 6 6 6 6 5 9 7 6 7 9 9 10 8 6 8 14 18 15 25 37 41 30
8 7 6 7 8 10 10 10 11 10 9 9 9 9 11 12 11 9 7 7 7 7 7 8 9 7 9 6 5 6 10 11 11 10 10 9 8 2 1 1 5 8 14
7 6 7 6 7 6 7 7 9 11 10 8 8 9 9 8 9 9 9 10 11 11 8 8 10 8 9 9 11 8 11 10 10 13 17 18 17 15 12 10 7 9 11
8 7 8 7 7 7 7 9 9 11 9 7 6 5 3 4 6 6 7 7 8 8 7 7 8 7 7 7 8 7 7 7 6 12 10 14 18 15 12 11 12 11 8
6 7 8 8 8 8 9 10 10 11 8 7 8 8 8 9 8 8 9 10 10 8 8 8 7 6 6 6 6 6 8 7 12 7 10 14 16 21 25 29 32 33 33
7 8 8 9 8 9 9 11 11 10 10 9 10 10 9 7 8 10 10 8 9 9 9 8 7 6 6 6 7 10 5 10 10 13 14 26 36 32 26 22 21 21 22
8 8 7 7 7 9 10 11 11 9 10 11 9 7 7 8 9 9 9 9 9 9 9 9 8 7 5 8 6 7 4 13 11 17 40 33 18 19 23 25 15 21 31
6 6 7 7 7 9 11 11 10 10 8 7 6 7 8 8 8 6 6 6 7 8 8 9 9 5 7 8 9 4 8 14 13 40 29 17 23 22 17 13 11 11 11
6 6 6 7 8 9 9 8 7 6 6 6 6 6 6 6 5 5 6 5 5 6 8 9 9 5 5 4 7 10 13 8 39 31 20 12 4 1 3 6 7 6 7
6 6 5 5 6 8 8 6 5 5 5 5 7 7 5 6 6 5 5 6 5 6 9 10 10 5 7 6 8 12 10 16 42 20 19 7 6 5 6 9 14 15 22
7 7 6 5 5 6 7 7 6 5 5 5 4 4 5 5 6 6 7 6 7 7 9 10 10 7 7 5 9 13 9 30 34 18 15 7 8 25 24 21 21 22 22
7 7 7 6 5 4 5 7 7 6 5 6 5 4 4 5 6 5 5 7 6 7 9 11 9 7 7 6 12 15 9 32 30 14 6 11 20 6 15 13 7 8 8
8 8 7 6 6 6 4 5 4 6 5 5 4 5 5 5 7 7 8 8 8 10 9 9 8 6 6 6 13 14 11 31 28 15 6 18 8 13 6 9 13 14 11
7 8 8 6 7 7 5 4 2 3 4 5 4 4 5 5 7 7 10 8 6 8 8 8 8 6 8 10 14 10 17 29 26 2 16 11 11 9 17 20 18 19 20
Height
5811 5813 5814 5815 5815 5815 5816 5816 5816 5816 5817 5817 5817 5818 5818 5819 5819 5820 5821 5821 5822 5822 5822 5822 5822 5822 5822 5823 5823 5822 5823 5822 5822 5822 5824 5825 5824 5825 5825 5824 5824 5823 5820
5803 5805 5805 5806 5807 5808 5807 5807 5807 5806 5806 5806 5806 5806 5806 5806 5806 5807 5807 5808 5809 5810 5809 5810 5810 5811 5811 5811 5810 5810 5811 5811 5810 5810 5810 5811 5813 5813 5812 5811 5811 5812 5813
5796 5797 5797 5797 5797 5797 5797 5797 5797 5796 5795 5796 5796 5796 5795 5794 5794 5794 5793 5793 5793 5794 5795 5796 5796 5796 5797 5797 5797 5797 5797 5798 5798 5798 5796 5796 5796 5798 5798 5796 5798 5796 5797
5789 5791 5792 5791 5789 5788 5789 5789 5788 5787 5785 5784 5783 5783 5782 5781 5781 5780 5779 5779 5779 5778 5778 5779 5780 5780 5782 5781 5782 5783 5783 5783 5784 5784 5783 5784 5784 5781 5784 5782 5781 5782 5783
5782 5783 5783 5783 5784 5783 5782 5780 5778 5777 5775 5773 5771 5769 5768 5767 5765 5764 5762 5762 5762 5761 5760 5761 5761 5762 5764 5764 5766 5768 5768 5768 5769 5768 5769 5768 5767 5761 5766 5767 5767 5766 5766
5775 5775 5775 5776 5776 5776 5775 5773 5770 5767 5765 5762 5760 5757 5756 5753 5751 5749 5746 5744 5742 5740 5739 5740 5741 5743 5744 5745 5746 5748 5749 5751 5752 5751 5751 5750 5751 5747 5745 5744 5744 5749 5754
5769 5770 5770 5770 5770 5769 5768 5766 5763 5759 5756 5754 5752 5750 5748 5745 5743 5740 5737 5734 5730 5726 5721 5718 5719 5721 5723 5724 5725 5727 5729 5731 5733 5733 5734 5732 5730 5730 5731 5726 5725 5725 5731
5765 5766 5766 5765 5764 5762 5761 5759 5756 5753 5750 5746 5743 5741 5738 5736 5734 5732 5728 5725 5721 5716 5709 5701 5697 5698 5699 5701 5704 5705 5707 5710 5712 5714 5716 5715 5713 5713 5711 5709 5708 5708 5710
5761 5762 5761 5760 5760 5758 5756 5753 5751 5748 5745 5742 5739 5737 5734 5731 5728 5725 5721 5717 5712 5706 5699 5691 5683 5680 5679 5680 5682 5684 5686 5689 5691 5694 5694 5695 5695 5693 5693 5691 5690 5691 5690
5757 5757 5757 5756 5754 5752 5751 5749 5747 5745 5742 5739 5737 5733 5730 5728 5724 5720 5716 5711 5706 5701 5694 5688 5682 5676 5673 5671 5668 5667 5668 5669 5670 5672 5674 5675 5675 5672 5672 5671 5670 5669 5671
5752 5752 5752 5750 5749 5748 5746 5744 5743 5741 5738 5736 5733 5730 5727 5724 5720 5717 5713 5708 5702 5697 5691 5686 5680 5674 5671 5667 5663 5660 5658 5655 5655 5654 5653 5653 5655 5655 5654 5649 5647 5647 5647
5746 5746 5746 5745 5743 5742 5740 5739 5737 5735 5733 5730 5728 5725 5722 5720 5716 5713 5708 5704 5700 5695 5690 5685 5679 5675 5670 5666 5661 5657 5653 5650 5646 5642 5639 5637 5634 5632 5631 5630 5628 5626 5623
5740 5740 5740 5738 5737 5736 5735 5733 5732 5730 5728 5725 5723 5720 5718 5715 5711 5708 5704 5700 5695 5690 5686 5681 5676 5671 5667 5662 5658 5653 5649 5643 5639 5633 5629 5624 5620 5615 5611 5607 5604 5602 5600
5735 5735 5734 5733 5732 5731 5730 5728 5727 5725 5723 5720 5718 5715 5712 5709 5706 5703 5699 5695 5691 5686 5681 5675 5670 5665 5660 5655 5650 5645 5640 5634 5629 5622 5616 5610 5604 5600 5594 5589 5584 5580 5576
5730 5730 5730 5729 5728 5726 5725 5723 5721 5720 5718 5716 5713 5711 5707 5705 5701 5698 5694 5690 5685 5680 5675 5669 5664 5659 5653 5647 5641 5635 5628 5622 5615 5607 5599 5592 5584 5578 5572 5569 5564 5559 5555
5725 5725 5725 5724 5722 5721 5720 5718 5717 5715 5713 5711 5709 5706 5703 5701 5697 5693 5689 5683 5679 5674 5668 5662 5656 5650 5643 5636 5630 5623 5615 5606 5597 5589 5580 5572 5565 5558 5551 5545 5539 5534 5530
5721 5720 5720 5719 5718 5716 5715 5714 5713 5711 5709 5707 5704 5702 5699 5696 5691 5686 5682 5676 5671 5666 5660 5654 5647 5641 5634 5626 5618 5609 5600 5590 5580 5569 5560 5549 5540 5532 5527 5520 5513 5507 5500
5716 5716 5715 5714 5713 5712 5711 5710 5709 5707 5704 5702 5700 5697 5693 5689 5685 5679 5675 5669 5664 5658 5652 5645 5638 5631 5623 5615 5606 5596 5585 5574 5562 5550 5538 5527 5516 5508 5502 5498 5492 5487 5479
5711 5711 5710 5710 5709 5709 5708 5706 5704 5702 5700 5697 5695 5691 5687 5683 5678 5674 5669 5663 5657 5651 5644 5637 5629 5621 5612 5603 5593 5582 5571 5558 5545 5531 5517 5508 5501 5494 5488 5485 5481 5473 5463
5706 5706 5705 5705 5705 5705 5703 5702 5700 5698 5695 5692 5689 5686 5682 5677 5673 5668 5663 5657 5650 5643 5636 5628 5620 5611 5602 5592 5581 5571 5559 5547 5532 5515 5503 5497 5491 5484 5478 5473 5468 5463 5454
5701 5701 5701 5701 5701 5700 5699 5697 5695 5693 5690 5687 5684 5680 5676 5671 5667 5662 5656 5649 5642 5635 5627 5619 5610 5600 5591 5579 5567 5555 5542 5530 5516 5504 5496 5488 5483 5477 5470 5464 5459 5453 5447
5695 5696 5696 5696 5696 5695 5693 5691 5689 5687 5685 5682 5678 5674 5670 5665 5660 5654 5648 5641 5634 5626 5618 5610 5600 5590 5580 5568 5556 5543 5529 5515 5502 5495 5488 5482 5475 5468 5460 5452 5446 5441 5437
5690 5690 5691 5691 5691 5690 5688 5686 5684 5681 5678 5675 5671 5667 5662 5658 5652 5646 5640 5633 5626 5618 5610 5602 5593 5582 5570 5559 5546 5533 5520 5506 5494 5486 5480 5474 5467 5459 5451 5443 5437 5431 5426
5684 5684 5684 5685 5684 5684 5682 5680 5678 5675 5672 5669 5665 5660 5655 5650 5645 5638 5631 5625 5617 5609 5601 5592 5583 5573 5561 5550 5537 5524 5511 5497 5486 5479 5472 5465 5457 5451 5444 5436 5430 5424 5419
5677 5677 5678 5678 5678 5677 5675 5673 5671 5668 5665 5661 5657 5653 5648 5643 5637 5630 5623 5616 5608 5601 5592 5583 5573 5563 5552 5539 5526 5513 5501 5488 5478 5471 5464 5456 5449 5442 5435 5428 5422 5416 5410
5670 5670 5670 5671 5670 5670 5668 5666 5664 5661 5658 5654 5650 5646 5641 5636 5629 5622 5615 5607 5599 5590 5581 5572 5563 5552 5540 5529 5517 5504 5489 5478 5470 5463 5455 5448 5441 5433 5426 5418 5411 5405 5401